STARLINK-37738, 69316

Orbit data source: Space-Track

STARLINK-37738, 69316 is a payload satellite owned by SpaceX/Seattle (US) in SSO that was launched on Sat, 30 May 2026 UTC via an FALCON 9 launch vehicle from the Air Force Western Test Range (AFWTR). Payload-class satellites include a variety of spacecraft equipped with specific instruments for various scientific and technological missions. These include communications satellites like Starlink; space stations such as the ISS; scientific satellites like the Hubble; Earth observation satellites from companies like Planet Labs, Umbra, and HawkEye 360; GPS; miniature CubeSats for education and research; and military/defense satellites.

Loading next visibility...
Identifier
69316, 2026-119W
Orbit
SSO
Country
Flag of USUS
Related business
Manufacturer
SpaceX/Seattle
Mission
Operational Commercial Communications
Bus & Motor
STARLINK V2MO, Unknown motor
Mass
575 kg wet, ~530 kg dry
Launch date (UTC)
2026-05-30 (2 months ago)
Launch vehicle
FALCON 9
Launch site
Air Force Western Test Range (AFWTR)
Object type
Payload
Rocket body
Debris
Shape & HBR
Box + 1 Pan, 17.7 m
Radar Cross Section
41.120 m², Large (>1 m²)

Expand to show TLE details & history
Last TLE update: 11 hours ago

TLE from 11 hours ago
0 STARLINK-37738
1 69316U 26119W   26221.64748910  .00009971  00000-0  31074-3 0  9990
2 69316  97.2849 247.0433 0001330 108.7191 251.4196 15.33449071 12258
Epoch: 2026-08-09T15:32Z
TLE epoch observation values (Epoch: 2026-08-09T15:32:23.058Z)
Latitude
-0.00003°
Longitude
55.80575°
Altitude
468.933 km
Speed
7.632 km/s
True Right ascension
16h 28m 10s
True Declination
0° 00' 00"
Sunlit
Object was in daylight at epoch
Visualization orbit readout
Latitude
Unknown
Longitude
Unknown
Altitude
Unknown
Speed
Unknown
Apparent Right ascension
Unknown
Apparent Declination
Unknown
Sunlit
N/A
Visualization observer readout
Local Sidereal Time
16:44:36
Azimuth
Unknown
Elevation
Unknown
Doppler factor
Unknown
Orbital elements
Apogee altitude
463.384 km
Perigee altitude
461.564 km
Semi-major axis
6,840.611 km
Eccentricity
0.00013
Inclination
97.2849°
RAAN
247.0433°
Arg. of periapsis
108.7191°
True anomaly
251.40515°
Mean anomaly
251.4196°
Eccentric anomaly
251.41238°
Mean motion
3.8362 °/min
Orbital period
93.84 mins
BSTAR
0.00031074
Loading maneuver chart data...
Computing Atmospheric mass density...
Loading historical data...
Loading historical data...
Loading historical data...
Loading historical data...
Loading historical data...
Loading historical data...
Loading historical data...

Documentation

Showing up to 5 results
|